Other Public Products
Issued by NWS Charleston, SC

Current Version | Previous Version | Graphics & Text | Print | Product List | Glossary On
Versions: 1 2 3 4 5 6 7 8 9 10 11 12 13 14 15 16 17 18 19 20 21 22 23 24 25 26 27 28 29 30 31 32 33 34 35 36 37 38 39 40 41 42 43 44 45 46 47 48 49 50
000 FPUS82 KCHS 201512 OPUCHS TEST...KCHS/KSAV Gateway Observations...TEST National Weather Service Charleston SC 1000 AM EST FRI JAN 20 2017 NOTE: "fair" indicates few or no clouds below 12,000 feet with no significant weather and/or obstructions to visibility. SCZ050-WAZ558-NCZ071-TXZ119-213-PAZ071-DCZ001-FLZ074-172-MI076- NYZ176-178-MAZ016-IL014-TNZ027-NJZ106-GAZ044-MD014-201600- ...Gateway Observations for Charleston International... CITY SKY/WX TMP DP RH WIND PRES REMARKS Chas Airport MOSUNNY 69 61 75 SW9 29.92R Seattle MOCLDY 45 32 60 E10 29.17F Charlotte CLOUDY 55 52 89 S3 29.89R Dallas DFW CLOUDY 53 41 63 SW10 29.66R Dallas Love CLOUDY 54 39 57 S7 29.68R Philladelphia CLOUDY 38 34 85 E6 30.01S WCI 33 Wash National CLOUDY 44 39 82 CALM 29.98S Baltimore LGT RAIN 39 39 100 E6 29.98S FOG WCI 35 Miami MOSUNNY 77 63 61 VRB3 30.05R Detroit LGT RAIN 37 35 92 NE9 29.66F FOG WCI 30 Newark CLOUDY 43 32 65 E5 30.01F Laguardia CLOUDY 42 32 67 NE8 30.02R J F K CLOUDY 44 28 53 E3 30.03R Boston Logan CLOUDY 38 32 79 CALM 30.04S Ft. Lauderdale MOSUNNY 74 62 66 VRB5 30.04R Chicago O`Hare CLOUDY 39 38 96 NE5 29.64R FOG WCI 36 Chicago Midway CLOUDY 38 37 97 E5 29.65R FOG WCI 34 Houston Bush CLOUDY 61 58 90 SW8 29.84R FOG Houston Hobby MOSUNNY 62 62 100 SW10 29.83R Nashville MOSUNNY 59 54 83 S9 29.80R Atlanta MOSUNNY 66 60 81 SW13 29.88R $$ GAZ044-118-TXZ119-213-NCZ071-DCZ001-MDZ014-506-PAZ021-071-NJZ106- NYZ176-178-MAZ106-OHZ011-021-055-MIZ076-KYZ091-ILZ014-INZ047- MNZ060-201600- ...Gateway Observations for Savannah International... CITY SKY/WX TMP DP RH WIND PRES REMARKS Savannah Arpt CLOUDY 68 61 78 W13 29.93R Atlanta MOSUNNY 66 60 81 SW13 29.88R Charlotte CLOUDY 55 52 89 S3 29.89R Dallas DFW CLOUDY 53 41 63 SW10 29.66R Houston Bush CLOUDY 61 58 90 SW8 29.84R FOG Wash National CLOUDY 44 39 82 CALM 29.98S Wash Dulles CLOUDY 42 37 82 SE7 29.95F Baltimore LGT RAIN 39 39 100 E6 29.98S FOG WCI 35 Philadelphia CLOUDY 38 34 85 E6 30.01S WCI 33 Newark CLOUDY 43 32 65 E5 30.01F Laguardia CLOUDY 42 32 67 NE8 30.02R J F K CLOUDY 44 28 53 E3 30.03R Boston CLOUDY 38 32 79 CALM 30.04S Pittsburg LGT RAIN 41 41 100 SE3 29.72S FOG Akron LGT RAIN 43 40 89 S14 29.68R FOG Cleveland LGT RAIN 44 40 85 S12 29.68R FOG Cincinnati CLOUDY 55 53 93 SW8 29.71R Columbus N/A 49 49 100 S12 29.70R Detroit LGT RAIN 37 35 92 NE9 29.66F FOG WCI 30 Chicago O`Hare CLOUDY 39 38 96 NE5 29.64R FOG WCI 36 Minneapolis DRIZZLE 35 33 92 SE8 29.62S FOG WCI 29 Indianapolis DRZL/FOG 50 50 100 SW8 29.67R VSB 1/4 $$

USA.gov is the U.S. government's official web portal to all federal, state and local government web resources and services.